Thedford, NE

2:57 PM CDT on June 23, 2017 (GMT -0500)
Thedford

Weather History for KTIF - March, 2014

Change the Weather History Date:

Monday, March 31, 2014

  Actual Average (KANW) Record (KANW)
Temperature  
Mean Temperature 45 °F -  
Max Temperature 66 °F 49 °F 80 °F (2012)
Min Temperature 23 °F 29 °F 20 °F (2014)
Degree Days  
Heating Degree Days 20    
Moisture  
Dew Point 25 °F    
Average Humidity 66    
Maximum Humidity 90    
Minimum Humidity 24    
Precipitation  
Precipitation 0.00 in - - ()
Sea Level Pressure  
Sea Level Pressure 29.66 in    
Wind  
Wind Speed 17 mph (NW)    
Max Wind Speed 36 mph    
Max Gust Speed 48 mph    
Visibility 8 miles    
Events Snow    
Averages and records for this station are not official NWS values.
T = Trace of Precipitation, MM = Missing Value Source: NWS Daily Summary

Daily Weather History Graph

Daily Weather History Graph

Search for Another Location

Airport or City:

Trip Planner

Search our weather history database for the weather conditions in past years. The results will help you decide how hot, cold, wet, or windy it might be!

Date:

Astronomy

Mar. 31, 2014 Rise Set
Actual Time 7:26 AM CDT 8:06 PM CDT
Civil Twilight 6:58 AM CDT 8:35 PM CDT
Nautical Twilight 6:25 AM CDT 9:08 PM CDT
Astronomical Twilight 5:50 AM CDT 9:42 PM CDT
Moon 7:50 AM CDT (3/31) 9:29 PM CDT (3/31)
Length of Visible Light 13h 36m
Length of Day
12h 40m
New Moon, 1% of the Moon is Illuminated
Mar 31
New Moon
Apr 7
First Quarter
Apr 15
Full
Apr 22
Last Quarter
Apr 29
New

Hourly Weather History & Observations

Time (CDT) Temp. Windchill Dew Point Humidity Pressure Visibility Wind Dir Wind Speed Gust Speed Precip Events Conditions
12:15 AM 50.4 °F - 32.5 °F 50% 29.40 in 10.0 mi Calm Calm - N/A   Clear
12:35 AM 53.8 °F - 34.0 °F 47% 29.39 in 10.0 mi South 4.6 mph - N/A   Clear
12:55 AM 56.5 °F - 34.2 °F 43% 29.38 in 10.0 mi South 8.1 mph 17.3 mph N/A   Mostly Cloudy
1:15 AM 66.0 °F - 28.4 °F 24% 29.37 in 10.0 mi South 16.1 mph 25.3 mph N/A   Scattered Clouds
1:35 AM 63.7 °F - 29.3 °F 27% 29.35 in 10.0 mi SSE 15.0 mph - N/A   Scattered Clouds
1:55 AM 63.5 °F - 29.7 °F 28% 29.35 in 10.0 mi SSE 12.7 mph - N/A   Scattered Clouds
2:15 AM 62.1 °F - 31.5 °F 32% 29.36 in 10.0 mi South 15.0 mph 21.9 mph N/A   Scattered Clouds
2:35 AM 60.8 °F - 32.4 °F 34% 29.35 in 10.0 mi SSE 12.7 mph - N/A   Scattered Clouds
2:55 AM 60.4 °F - 32.2 °F 35% 29.32 in 10.0 mi South 8.1 mph - N/A   Clear
3:15 AM 57.9 °F - 32.0 °F 37% 29.31 in 10.0 mi South 8.1 mph - N/A   Clear
3:35 AM 56.5 °F - 32.0 °F 39% 29.33 in 10.0 mi South 11.5 mph - N/A   Clear
3:55 AM 59.5 °F - 29.1 °F 32% 29.33 in 10.0 mi SW 11.5 mph 17.3 mph N/A   Clear
4:15 AM 58.3 °F - 28.9 °F 33% 29.33 in 10.0 mi South 8.1 mph - N/A   Scattered Clouds
4:35 AM 55.4 °F - 28.6 °F 36% 29.33 in 10.0 mi WSW 10.4 mph - N/A   Clear
4:55 AM 54.0 °F - 29.7 °F 39% 29.32 in 10.0 mi West 11.5 mph - N/A   Scattered Clouds
5:15 AM 51.6 °F - 31.6 °F 46% 29.31 in 10.0 mi WNW 9.2 mph - N/A   Clear
5:35 AM 50.4 °F - 32.2 °F 50% 29.32 in 10.0 mi West 11.5 mph - N/A   Clear
5:55 AM 49.5 °F - 32.9 °F 53% 29.34 in 10.0 mi NW 11.5 mph 21.9 mph N/A   Clear
6:15 AM 45.9 °F 39.1 °F 33.3 °F 61% 29.35 in 10.0 mi NNW 16.1 mph - N/A   Clear
6:35 AM 43.2 °F 35.3 °F 34.7 °F 72% 29.37 in 10.0 mi NW 17.3 mph 25.3 mph N/A   Clear
6:55 AM 42.3 °F 33.8 °F 36.3 °F 79% 29.39 in 10.0 mi NW 18.4 mph 27.6 mph N/A   Mostly Cloudy
7:15 AM 41.2 °F 31.1 °F 36.0 °F 82% 29.41 in 7.0 mi NW 24.2 mph 34.5 mph N/A   Overcast
7:35 AM 39.2 °F 29.0 °F 35.2 °F 86% 29.43 in 5.0 mi NW 21.9 mph 32.2 mph N/A   Overcast
7:55 AM 37.6 °F 26.6 °F 34.5 °F 89% 29.46 in 2.5 mi NW 23.0 mph 33.4 mph N/A   Overcast
8:15 AM 35.8 °F 24.2 °F 32.9 °F 89% 29.49 in 2.5 mi NW 23.0 mph 34.5 mph N/A   Overcast
8:35 AM 34.9 °F 23.3 °F 32.0 °F 89% 29.51 in 3.0 mi NW 21.9 mph 32.2 mph N/A   Overcast
8:55 AM 34.3 °F 22.0 °F 30.9 °F 87% 29.53 in 7.0 mi NW 24.2 mph 35.7 mph N/A   Overcast
9:15 AM 33.8 °F 21.3 °F 30.9 °F 89% 29.56 in 4.0 mi NW 24.2 mph 29.9 mph N/A   Overcast
9:35 AM 33.1 °F 21.2 °F 30.4 °F 90% 29.57 in 4.0 mi NW 20.7 mph 32.2 mph N/A   Overcast
9:55 AM 32.2 °F 20.4 °F 29.1 °F 88% 29.59 in 2.5 mi NW 19.6 mph 29.9 mph N/A Snow Light Snow
10:15 AM 32.0 °F 18.9 °F 28.4 °F 87% 29.60 in 1.5 mi NW 24.2 mph 29.9 mph N/A Snow Light Snow
10:35 AM 31.8 °F 18.1 °F 27.1 °F 83% 29.61 in 2.5 mi NW 26.5 mph 33.4 mph N/A Snow Light Snow
10:55 AM 31.6 °F 18.4 °F 26.1 °F 80% 29.63 in 5.0 mi NW 24.2 mph 34.5 mph N/A Snow Light Snow
11:15 AM 30.4 °F 16.5 °F 24.4 °F 79% 29.64 in 4.0 mi NW 25.3 mph 34.5 mph N/A Snow Light Snow
11:30 AM 28.9 °F 13.7 °F 24.4 °F 83% 29.65 in 0.5 mi WNW 28.8 mph 38.0 mph N/A Snow Snow
11:55 AM 25.5 °F 9.1 °F 20.8 °F 82% 29.67 in 0.8 mi NW 28.8 mph 39.1 mph N/A Snow Light Snow
12:20 PM 25.7 °F 9.6 °F 19.4 °F 77% 29.67 in 2.5 mi NW 27.6 mph 47.2 mph N/A Snow Light Snow
12:35 PM 26.1 °F 8.8 °F 19.0 °F 75% 29.67 in 3.0 mi NW 33.4 mph 41.4 mph N/A Snow Light Snow
1:00 PM 26.1 °F 10.4 °F 17.2 °F 69% 29.68 in 10.0 mi NW 26.5 mph 44.9 mph N/A   Overcast
1:15 PM 25.7 °F 8.8 °F 16.0 °F 67% 29.69 in 10.0 mi NW 31.1 mph 42.6 mph N/A   Overcast
1:35 PM 25.3 °F 7.4 °F 15.3 °F 66% 29.70 in 7.0 mi NW 35.7 mph 44.9 mph N/A   Mostly Cloudy
1:55 PM 24.8 °F 7.9 °F 15.6 °F 68% 29.71 in 4.0 mi NW 29.9 mph 48.3 mph N/A Snow Light Snow
2:15 PM 25.3 °F 7.6 °F 15.6 °F 67% 29.72 in 5.0 mi NW 34.5 mph 47.2 mph N/A Snow Light Snow
2:35 PM 24.8 °F 9.0 °F 15.8 °F 69% 29.74 in 5.0 mi NW 25.3 mph 44.9 mph N/A Snow Light Snow
2:55 PM 25.2 °F 8.1 °F 16.3 °F 69% 29.76 in 4.0 mi NW 31.1 mph 41.4 mph N/A Snow Light Snow
3:10 PM 24.8 °F 7.3 °F 15.3 °F 67% 29.78 in 10.0 mi NW 32.2 mph 43.7 mph N/A   Overcast
3:35 PM 24.4 °F 7.4 °F 16.3 °F 71% 29.79 in 5.0 mi NW 29.9 mph 38.0 mph N/A Snow Light Snow
3:55 PM 25.3 °F 8.6 °F 16.2 °F 68% 29.79 in 10.0 mi NW 29.9 mph 41.4 mph N/A Snow Light Snow
4:15 PM 25.5 °F 8.3 °F 16.5 °F 69% 29.80 in 7.0 mi NW 32.2 mph 46.0 mph N/A Snow Light Snow
4:35 PM 26.4 °F 9.5 °F 17.8 °F 70% 29.83 in 7.0 mi NW 32.2 mph 40.3 mph N/A Snow Light Snow
4:55 PM 27.1 °F 11.6 °F 19.0 °F 72% 29.84 in 4.0 mi NW 27.6 mph 41.4 mph N/A Snow Light Snow
5:10 PM 27.3 °F 10.8 °F 18.7 °F 70% 29.85 in 5.0 mi NW 32.2 mph 41.4 mph N/A Snow Light Snow
5:35 PM 28.0 °F 13.0 °F 21.2 °F 76% 29.86 in 2.5 mi NW 26.5 mph 39.1 mph N/A Snow Light Snow
5:55 PM 28.8 °F 13.7 °F 19.9 °F 70% 29.87 in 10.0 mi NW 27.6 mph 43.7 mph N/A   Overcast
6:15 PM 29.5 °F 14.0 °F 21.2 °F 71% 29.88 in 10.0 mi NW 31.1 mph 41.4 mph N/A   Overcast
6:35 PM 29.8 °F 14.0 °F 20.8 °F 69% 29.89 in 10.0 mi NW 33.4 mph 46.0 mph N/A   Mostly Cloudy
6:55 PM 30.7 °F 15.0 °F 21.6 °F 69% 29.90 in 10.0 mi NW 34.5 mph 42.6 mph N/A   Mostly Cloudy
7:15 PM 29.8 °F 15.2 °F 21.2 °F 70% 29.91 in 10.0 mi NW 27.6 mph 40.3 mph N/A   Scattered Clouds
7:35 PM 29.3 °F 14.7 °F 21.0 °F 71% 29.93 in 10.0 mi NW 26.5 mph 38.0 mph N/A   Scattered Clouds
7:55 PM 28.4 °F 15.4 °F 21.2 °F 74% 29.96 in 10.0 mi NW 19.6 mph 35.7 mph N/A   Scattered Clouds
8:15 PM 28.4 °F 14.4 °F 20.8 °F 73% 29.97 in 10.0 mi NW 23.0 mph 33.4 mph N/A   Mostly Cloudy
8:35 PM 28.4 °F 13.3 °F 21.2 °F 74% 29.97 in 10.0 mi NW 27.6 mph 36.8 mph N/A   Overcast
8:55 PM 28.4 °F 14.4 °F 21.2 °F 74% 29.99 in 10.0 mi NW 23.0 mph 38.0 mph N/A   Overcast
9:15 PM 28.2 °F 14.2 °F 21.2 °F 75% 30.03 in 10.0 mi NW 23.0 mph 31.1 mph N/A   Overcast
9:30 PM 28.2 °F 14.2 °F 21.0 °F 74% 30.04 in 10.0 mi NW 23.0 mph 33.4 mph N/A   Overcast
9:50 PM 27.5 °F 13.5 °F 20.5 °F 75% 30.03 in 10.0 mi NW 21.9 mph 33.4 mph N/A   Overcast
10:10 PM 27.1 °F 13.8 °F 20.3 °F 75% 30.03 in 10.0 mi NW 19.6 mph 36.8 mph N/A   Mostly Cloudy
10:35 PM 26.2 °F 15.2 °F 20.1 °F 78% 30.05 in 10.0 mi NW 12.7 mph 18.4 mph N/A   Clear
11:00 PM 25.7 °F 13.5 °F 19.4 °F 77% 30.05 in 10.0 mi NW 15.0 mph 21.9 mph N/A   Clear
11:15 PM 25.2 °F 15.1 °F 18.7 °F 76% 30.06 in 10.0 mi NW 10.4 mph - N/A   Clear
11:35 PM 24.6 °F 13.8 °F 17.6 °F 75% 30.05 in 10.0 mi NW 11.5 mph - N/A   Clear
11:55 PM 23.9 °F 15.0 °F 17.1 °F 75% 30.05 in 10.0 mi NW 8.1 mph - N/A   Clear